sat.trackr.live / text

‹ back to catalog

GALAPAGOS-UTE-SWSU

NORAD 67279 · 2025-313AH

PAYLOAD ACTIVE UNKNOWN

§ Identity

Operator
Country
TBD
Launch date
2025-12-28
Launch site
VOSTO
Launch vehicle
Mass (kg)
RCS (m²)

External: N2YO · Heavens-Above · Gunter

§ Orbital elements

Epoch: 2026-09-19T23:47:33.731232Z

Period
94.49 min
Inclination
97.3843°
Eccentricity
0.0014461
Mean motion
15.23900624 rev/d
Perigee alt
484.2 km
Apogee alt
504.0 km
Semi-major
6,872.2 km
B*
1.7728e-4
RAAN
336.1392°
Arg perigee
36.5171°
Mean anomaly
323.7050°
Rev number
4,038

§ Raw data

GALAPAGOS-UTE-SWSU1 67279U 25313AH  26262.99136263  .00004221  00000+0  17728-3 0  99982 67279  97.3843 336.1392 0014461  36.5171 323.7050 15.23900624 40380

JSON: /api/v1/satellites/67279 · /tle

For live sub-satellite position, see the globe view (requires WebGL).

§ Visibility from observer

Set your observer location to see the next 7 days of passes ≥ 10°. The values pass through the URL so the page stays shareable.

No JS? Fill the form by hand. The geolocation button needs JavaScript.

§ Radio — SatNOGS DB

ModeDescriptionDownlinkUplink
AFSK Mode U - AFSK 1143 Beacon TLM 437.050 MHz
FSK Mode U - FSK2k4 435.750 MHz
SSTV Mode U - SSTV 437.050 MHz

3 transmitters · refreshed weekly from db.satnogs.org